CZ-6A R/B, 69400

Orbit data source: Space-Track

CZ-6A R/B, 69400 is space debris in LEO originally from a launch on Thu, 04 Jun 2026 UTC launched from the Taiyaun Space Center, China (TSC). Debris objects in space refer to the collection of defunct objects orbiting the Earth. Examples of debris include non-operational satellites, rocket bodies, and fragments generated from explosions, collisions, or faulty payload assembly.

Loading next visibility...
Identifier
69400, 2026-124U
Orbit
LEO
Country
Flag of CNCN / PRC
Related business
Manufacturer
SAST
Mission
Spacecraft
Bus & Motor
CZ-6A STAGE 2, YF-115
Mass
~6,000 kg wet, ~6,000 kg dry
Launch date (UTC)
2026-06-04 (2 weeks ago)
Launch vehicle
Unknown
Launch site
Taiyaun Space Center, China (TSC)
Object type
Payload
Rocket body
Debris
Shape & HBR
Unknown
Radar Cross Section
Large (>1 m²)

Expand to show TLE details & history
Last TLE update: 9 hours ago

TLE from 9 hours ago
0 CZ-6A R/B
1 69400U 26124U   26171.46274867  .00000183  00000-0  33772-4 0  9993
2 69400  89.0256   1.5786 0099715  50.9085 310.0941 14.57304834  2331
Epoch: 2026-06-20T11:06Z
TLE epoch observation values (Epoch: 2026-06-20T11:06:21.485Z)
Latitude
-0.00003°
Longitude
-73.68794°
Altitude
659.934 km
Speed
7.551 km/s
True Right ascension
00h 06m 18s
True Declination
0° 00' 00"
Sunlit
Object was in daylight at epoch
Visualization orbit readout
Latitude
Unknown
Longitude
Unknown
Altitude
Unknown
Speed
Unknown
Apparent Right ascension
Unknown
Apparent Declination
Unknown
Sunlit
N/A
Visualization observer readout
Local Sidereal Time
07:13:37
Azimuth
Unknown
Elevation
Unknown
Doppler factor
Unknown
Orbital elements
Apogee altitude
769.355 km
Perigee altitude
628.22 km
Semi-major axis
7,076.924 km
Eccentricity
0.00997
Inclination
89.0256°
RAAN
1.5786°
Arg. of periapsis
50.9085°
True anomaly
309.21295°
Mean anomaly
310.0941°
Eccentric anomaly
309.65423°
Mean motion
3.64566 °/min
Orbital period
98.75 mins
BSTAR
0.000033772
Loading maneuver chart data...
Computing Atmospheric mass density...
Loading historical data...
Loading historical data...
Loading historical data...
Loading historical data...
Loading historical data...
Loading historical data...
Loading historical data...

Documentation

Showing up to 5 results
|